sat.trackr.live / text

‹ back to catalog

STARLINK-4143

NORAD 53029 · 2022-076AV

PAYLOAD ACTIVE UNKNOWN

§ Identity

Operator
Country
US
Launch date
2022-07-07
Launch site
AFETR
Launch vehicle
Mass (kg)
RCS (m²)

Purposes: comms

External: N2YO · Heavens-Above · Gunter

§ Orbital elements

Epoch: 2026-05-25T03:21:03.713184Z

Period
95.44 min
Inclination
53.2132°
Eccentricity
0.0001702
Mean motion
15.08845765 rev/d
Perigee alt
538.5 km
Apogee alt
540.9 km
Semi-major
6,917.9 km
B*
1.4293e-4
RAAN
90.9205°
Arg perigee
80.2244°
Mean anomaly
279.8940°
Rev number
21,466

§ Raw data

STARLINK-41431 53029U 22076AV  26145.13962631  .00001988  00000+0  14293-3 0  99922 53029  53.2132  90.9205 0001702  80.2244 279.8940 15.08845765214669

JSON: /api/v1/satellites/53029 · /tle

For live sub-satellite position, see the globe view (requires WebGL).

§ Visibility from observer

Set your observer location to see the next 7 days of passes ≥ 10°. The values pass through the URL so the page stays shareable.

No JS? Fill the form by hand. The geolocation button needs JavaScript.